Location: Helion Bumpstead
(52.0500°N, 0.4000°E)
Time: 20:16:23
(UTC+00:00)

CZ-4 R/B - Pass Details

Date: 15 November 2025
Orbit: 675 x 744 km, 98.7° (Epoch: 14 December)

Event Time Altitude Azimuth Distance (km) Brightness Sun altitude
Rises 05:49:43 0° 12° (NNE) 3,162 7.2 -13.5°
Reaches altitude 10° 05:52:04 10° 7° (N) 2,226 6.3 -13.2°
Maximum altitude 05:56:46 49° 293° (WNW) 916 4.0 -12.5°
Drops below altitude 10° 06:01:21 10° 219° (SW) 2,167 6.1 -11.8°
Sets 06:03:37 0° 214° (SW) 3,070 6.9 -11.5°
